Time,TemperatureF,DewpointF,PressureIn,WindDirection,WindDirectionDegrees,WindSpeedMPH,WindSpeedGustMPH,Humidity,HourlyPrecipIn,Conditions,Clouds,dailyrainin,SoftwareType,DateUTC
2013-02-22 00:00:00,27.0,19.2,30.19,SW,225,2.0,11.0,72,0.00,,SKC,0.00,VWS V14.01,2013-02-22 05:00:00,
2013-02-22 00:10:00,27.0,19.2,30.20,SW,225,2.0,6.0,72,0.00,,SKC,0.00,VWS V14.01,2013-02-22 05:10:00,
2013-02-22 00:20:00,27.0,19.5,30.21,WSW,248,2.0,8.0,73,0.00,,SKC,0.00,VWS V14.01,2013-02-22 05:20:00,
2013-02-22 00:30:00,27.0,19.5,30.20,West,270,2.0,10.0,73,0.00,,SKC,0.00,VWS V14.01,2013-02-22 05:30:00,
2013-02-22 00:40:00,27.2,19.7,30.22,East,90,2.0,7.0,73,0.00,,SKC,0.00,VWS V14.01,2013-02-22 05:40:00,
2013-02-22 00:50:00,27.2,19.7,30.22,WSW,248,2.0,8.0,73,0.00,,SKC,0.00,VWS V14.01,2013-02-22 05:50:00,
2013-02-22 01:00:00,27.2,19.7,30.22,WSW,248,2.0,8.0,73,0.00,,SKC,0.00,VWS V14.01,2013-02-22 06:00:00,
2013-02-22 01:10:00,27.2,19.7,30.23,West,270,1.0,5.0,73,0.00,,SKC,0.00,VWS V14.01,2013-02-22 06:10:00,
2013-02-22 01:20:00,27.2,19.7,30.23,WSW,248,2.0,6.0,73,0.00,,SKC,0.00,VWS V14.01,2013-02-22 06:20:00,
2013-02-22 01:30:00,27.0,19.5,30.22,West,270,1.0,7.0,73,0.00,,SKC,0.00,VWS V14.01,2013-02-22 06:30:00,
2013-02-22 01:40:00,27.0,19.5,30.21,WNW,292,1.0,4.0,73,0.00,,SKC,0.00,VWS V14.01,2013-02-22 06:40:00,
2013-02-22 01:50:00,26.9,19.7,30.22,SSW,202,1.0,7.0,74,0.00,,SKC,0.00,VWS V14.01,2013-02-22 06:50:00,
2013-02-22 02:00:00,27.0,19.8,30.21,WSW,248,1.0,6.0,74,0.00,,SKC,0.00,VWS V14.01,2013-02-22 07:00:00,
2013-02-22 02:10:00,26.9,19.7,30.21,WSW,248,0.0,3.0,74,0.00,,SKC,0.00,VWS V14.01,2013-02-22 07:10:00,
2013-02-22 02:20:00,27.0,20.1,30.21,East,90,1.0,6.0,75,0.00,,SKC,0.00,VWS V14.01,2013-02-22 07:20:00,
2013-02-22 02:30:00,27.0,20.1,30.21,SW,225,1.0,5.0,75,0.00,,SKC,0.00,VWS V14.01,2013-02-22 07:30:00,
2013-02-22 02:40:00,27.2,20.3,30.22,NNE,22,1.0,5.0,75,0.00,,SKC,0.00,VWS V14.01,2013-02-22 07:40:00,
2013-02-22 02:50:00,27.2,20.3,30.22,West,270,1.0,5.0,75,0.00,,SKC,0.00,VWS V14.01,2013-02-22 07:50:00,
2013-02-22 03:00:00,27.3,20.4,30.21,NNW,338,1.0,6.0,75,0.00,,SKC,0.00,VWS V14.01,2013-02-22 08:00:00,
2013-02-22 03:10:00,27.3,20.8,30.23,East,90,1.0,7.0,76,0.00,,SKC,0.00,VWS V14.01,2013-02-22 08:10:00,
2013-02-22 03:20:00,27.3,20.8,30.22,NNW,338,1.0,7.0,76,0.00,,SKC,0.00,VWS V14.01,2013-02-22 08:20:00,
2013-02-22 03:30:00,27.5,20.9,30.22,NW,315,1.0,7.0,76,0.00,,SKC,0.00,VWS V14.01,2013-02-22 08:30:00,
2013-02-22 03:40:00,27.6,21.0,30.22,East,90,1.0,7.0,76,0.00,,SKC,0.00,VWS V14.01,2013-02-22 08:40:00,
2013-02-22 03:50:00,27.8,21.2,30.23,ENE,68,1.0,3.0,76,0.00,,SKC,0.00,VWS V14.01,2013-02-22 08:50:00,
2013-02-22 04:00:00,27.8,21.5,30.24,NNW,338,1.0,5.0,77,0.00,,SKC,0.00,VWS V14.01,2013-02-22 09:00:00,
2013-02-22 04:10:00,27.8,21.5,30.25,NE,45,0.0,4.0,77,0.00,,SKC,0.00,VWS V14.01,2013-02-22 09:10:00,
2013-02-22 04:20:00,27.8,21.5,30.26,North,0,0.0,5.0,77,0.00,,SKC,0.00,VWS V14.01,2013-02-22 09:20:00,
2013-02-22 04:30:00,27.8,21.5,30.27,SE,135,1.0,5.0,77,0.00,,SKC,0.00,VWS V14.01,2013-02-22 09:30:00,
2013-02-22 04:40:00,27.8,21.5,30.28,NE,45,0.0,4.0,77,0.00,,SKC,0.00,VWS V14.01,2013-02-22 09:40:00,
2013-02-22 04:50:00,27.8,21.5,30.28,NE,45,0.0,3.0,77,0.00,,SKC,0.00,VWS V14.01,2013-02-22 09:50:00,
2013-02-22 05:00:00,27.6,21.4,30.29,NE,45,0.0,4.0,77,0.00,,SKC,0.00,VWS V14.01,2013-02-22 10:00:00,
2013-02-22 05:10:00,27.6,21.6,30.29,NE,45,0.0,3.0,78,0.00,,SKC,0.00,VWS V14.01,2013-02-22 10:10:00,
2013-02-22 05:20:00,27.6,21.4,30.29,NE,45,0.0,1.0,77,0.00,,SKC,0.00,VWS V14.01,2013-02-22 10:20:00,
2013-02-22 05:30:00,27.6,21.6,30.30,NE,45,0.0,3.0,78,0.00,,SKC,0.00,VWS V14.01,2013-02-22 10:30:00,
2013-02-22 05:40:00,27.5,21.5,30.30,NE,45,0.0,2.0,78,0.00,,SKC,0.00,VWS V14.01,2013-02-22 10:40:00,
2013-02-22 05:50:00,27.5,21.5,30.30,NE,45,0.0,2.0,78,0.00,,SKC,0.00,VWS V14.01,2013-02-22 10:50:00,
2013-02-22 06:00:00,27.5,21.5,30.30,NE,45,0.0,2.0,78,0.00,,SKC,0.00,VWS V14.01,2013-02-22 11:00:00,
2013-02-22 06:10:00,27.5,21.9,30.31,NE,45,0.0,3.0,79,0.00,,SKC,0.00,VWS V14.01,2013-02-22 11:10:00,
2013-02-22 06:20:00,27.5,21.9,30.32,ENE,68,0.0,3.0,79,0.00,,SKC,0.00,VWS V14.01,2013-02-22 11:20:00,
2013-02-22 06:30:00,27.6,22.0,30.31,ENE,68,0.0,4.0,79,0.00,,SKC,0.00,VWS V14.01,2013-02-22 11:30:00,
2013-02-22 06:40:00,27.8,22.1,30.32,SE,135,0.0,5.0,79,0.00,,SKC,0.00,VWS V14.01,2013-02-22 11:40:00,
2013-02-22 06:50:00,27.9,22.2,30.32,NNE,22,0.0,4.0,79,0.00,,SKC,0.00,VWS V14.01,2013-02-22 11:50:00,
2013-02-22 07:00:00,28.2,22.8,30.33,NNE,22,0.0,4.0,80,0.00,,SKC,0.00,VWS V14.01,2013-02-22 12:00:00,
2013-02-22 07:10:00,28.5,23.1,30.33,SE,135,0.0,5.0,80,0.00,,SKC,0.00,VWS V14.01,2013-02-22 12:10:00,
2013-02-22 07:20:00,28.8,23.1,30.34,SE,135,1.0,6.0,79,0.00,,SKC,0.00,VWS V14.01,2013-02-22 12:20:00,
2013-02-22 07:30:00,29.0,23.6,30.33,South,180,0.0,4.0,80,0.00,,SKC,0.00,VWS V14.01,2013-02-22 12:30:00,
2013-02-22 07:40:00,29.4,23.7,30.34,ESE,112,1.0,5.0,79,0.00,,SKC,0.00,VWS V14.01,2013-02-22 12:40:00,
2013-02-22 07:50:00,29.7,24.0,30.34,ESE,112,1.0,5.0,79,0.00,,SKC,0.00,VWS V14.01,2013-02-22 12:50:00,
2013-02-22 08:00:00,29.8,23.8,30.35,ENE,68,0.0,5.0,78,0.00,,SKC,0.00,VWS V14.01,2013-02-22 13:00:00,
2013-02-22 08:10:00,30.1,24.1,30.36,East,90,1.0,6.0,78,0.00,,SKC,0.00,VWS V14.01,2013-02-22 13:10:00,
2013-02-22 08:20:00,30.6,24.3,30.36,NE,45,0.0,4.0,77,0.00,,SKC,0.00,VWS V14.01,2013-02-22 13:20:00,
2013-02-22 08:30:00,31.0,24.6,30.35,NE,45,0.0,6.0,77,0.00,,SKC,0.00,VWS V14.01,2013-02-22 13:30:00,
2013-02-22 08:40:00,31.3,24.6,30.35,East,90,1.0,3.0,76,0.00,,SKC,0.00,VWS V14.01,2013-02-22 13:40:00,
2013-02-22 08:50:00,31.6,24.6,30.35,NE,45,1.0,5.0,75,0.00,,SKC,0.00,VWS V14.01,2013-02-22 13:50:00,
2013-02-22 09:00:00,31.9,24.9,30.35,ENE,68,1.0,4.0,75,0.00,,SKC,0.00,VWS V14.01,2013-02-22 14:00:00,
2013-02-22 09:10:00,32.2,24.9,30.35,NNW,338,0.0,4.0,74,0.00,,SKC,0.00,VWS V14.01,2013-02-22 14:10:00,
2013-02-22 09:20:00,32.4,24.7,30.35,NNE,22,0.0,3.0,73,0.00,,SKC,0.00,VWS V14.01,2013-02-22 14:20:00,
2013-02-22 09:30:00,32.5,24.8,30.35,WSW,248,1.0,5.0,73,0.00,,SKC,0.00,VWS V14.01,2013-02-22 14:30:00,
2013-02-22 09:46:00,32.9,24.9,30.35,ENE,67,0.0,1.0,72,0.00,,SKC,0.00,VWS V14.01,2013-02-22 14:46:00,
2013-02-22 09:50:00,33.1,25.1,30.35,ENE,69,0.0,2.0,72,0.00,,SKC,0.00,VWS V14.01,2013-02-22 14:50:00,
2013-02-22 09:52:00,33.1,25.1,30.35,North,360,3.0,3.0,72,0.00,,SKC,0.00,VWS V14.01,2013-02-22 14:52:00,
2013-02-22 09:57:00,33.2,24.8,30.35,North,355,0.0,3.0,71,0.00,,SKC,0.00,VWS V14.01,2013-02-22 14:57:00,
2013-02-22 10:00:00,33.5,25.1,30.34,ENE,65,0.0,3.0,71,0.00,,SKC,0.00,VWS V14.01,2013-02-22 15:00:00,
2013-02-22 10:02:00,33.5,25.1,30.34,ENE,65,0.0,1.0,71,0.00,,SKC,0.00,VWS V14.01,2013-02-22 15:02:00,
2013-02-22 10:07:00,33.8,25.4,30.35,SE,126,1.0,5.0,71,0.00,,SKC,0.00,VWS V14.01,2013-02-22 15:07:00,
2013-02-22 10:10:00,34.1,25.7,30.35,SE,132,1.0,5.0,71,0.00,,SKC,0.00,VWS V14.01,2013-02-22 15:10:00,
2013-02-22 10:12:00,34.3,25.5,30.34,East,90,1.0,2.0,70,0.00,,SKC,0.00,VWS V14.01,2013-02-22 15:12:00,
2013-02-22 10:17:00,34.6,25.5,30.35,ENE,61,0.0,4.0,69,0.00,,SKC,0.00,VWS V14.01,2013-02-22 15:17:00,
2013-02-22 10:20:00,34.7,25.6,30.34,ENE,57,2.0,4.0,69,0.00,,SKC,0.00,VWS V14.01,2013-02-22 15:20:00,
2013-02-22 10:22:00,34.7,25.6,30.34,ENE,76,0.0,2.0,69,0.00,,SKC,0.00,VWS V14.01,2013-02-22 15:22:00,
2013-02-22 10:27:00,34.7,25.6,30.35,South,175,1.0,6.0,69,0.00,,SKC,0.00,VWS V14.01,2013-02-22 15:27:00,
2013-02-22 10:30:00,34.9,25.8,30.34,SSE,159,0.0,0.0,69,0.00,,SKC,0.00,VWS V14.01,2013-02-22 15:30:00,
2013-02-22 10:33:00,34.9,25.8,30.34,SSE,159,0.0,0.0,69,0.00,,SKC,0.00,VWS V14.01,2013-02-22 15:33:00,
2013-02-22 10:38:00,35.0,25.9,30.34,East,99,0.0,2.0,69,0.00,,SKC,0.00,VWS V14.01,2013-02-22 15:38:00,
2013-02-22 10:40:00,35.2,25.7,30.34,East,99,0.0,2.0,68,0.00,,SKC,0.00,VWS V14.01,2013-02-22 15:40:00,
2013-02-22 10:43:00,35.3,25.8,30.34,ESE,107,4.0,4.0,68,0.00,,SKC,0.00,VWS V14.01,2013-02-22 15:43:00,
2013-02-22 10:48:00,35.3,25.8,30.33,ESE,111,1.0,4.0,68,0.00,,SKC,0.00,VWS V14.01,2013-02-22 15:48:00,
2013-02-22 10:50:00,35.5,26.0,30.33,ESE,105,0.0,5.0,68,0.00,,SKC,0.00,VWS V14.01,2013-02-22 15:50:00,
2013-02-22 10:53:00,35.5,26.0,30.33,ESE,105,1.0,1.0,68,0.00,,SKC,0.00,VWS V14.01,2013-02-22 15:53:00,
2013-02-22 10:58:00,35.5,26.4,30.33,East,91,0.0,4.0,69,0.00,,SKC,0.00,VWS V14.01,2013-02-22 15:58:00,
2013-02-22 11:00:00,35.6,26.5,30.33,East,92,1.0,5.0,69,0.00,,SKC,0.00,VWS V14.01,2013-02-22 16:00:00,
2013-02-22 11:03:00,35.6,26.1,30.33,East,81,0.0,2.0,68,0.00,,SKC,0.00,VWS V14.01,2013-02-22 16:03:00,
2013-02-22 11:08:00,35.6,26.1,30.33,SE,146,1.0,5.0,68,0.00,,SKC,0.00,VWS V14.01,2013-02-22 16:08:00,
2013-02-22 11:10:00,35.6,26.1,30.33,ESE,112,0.0,5.0,68,0.00,,SKC,0.00,VWS V14.01,2013-02-22 16:10:00,
2013-02-22 11:13:00,35.6,25.7,30.34,ESE,112,0.0,2.0,67,0.00,,SKC,0.00,VWS V14.01,2013-02-22 16:13:00,
2013-02-22 11:18:00,35.6,26.1,30.34,ESE,121,0.0,4.0,68,0.00,,SKC,0.00,VWS V14.01,2013-02-22 16:18:00,
2013-02-22 11:20:00,35.8,26.3,30.34,SSE,149,0.0,5.0,68,0.00,,SKC,0.00,VWS V14.01,2013-02-22 16:20:00,
2013-02-22 11:23:00,35.8,26.3,30.34,SSE,159,0.0,5.0,68,0.00,,SKC,0.00,VWS V14.01,2013-02-22 16:23:00,
2013-02-22 11:28:00,36.9,26.6,30.34,SSE,159,1.0,5.0,66,0.00,,SKC,0.00,VWS V14.01,2013-02-22 16:28:00,
2013-02-22 11:30:00,37.3,26.6,30.34,ESE,121,2.0,5.0,65,0.00,,SKC,0.00,VWS V14.01,2013-02-22 16:30:00,
2013-02-22 11:33:00,37.3,26.3,30.34,ESE,121,0.0,2.0,64,0.00,,SKC,0.00,VWS V14.01,2013-02-22 16:33:00,
2013-02-22 11:38:00,37.8,26.7,30.34,ESE,121,0.0,2.0,64,0.00,,SKC,0.00,VWS V14.01,2013-02-22 16:38:00,
2013-02-22 11:40:00,37.8,26.4,30.34,ESE,121,0.0,2.0,63,0.00,,SKC,0.00,VWS V14.01,2013-02-22 16:40:00,
2013-02-22 11:43:00,37.6,26.9,30.34,ESE,121,1.0,4.0,65,0.00,,SKC,0.00,VWS V14.01,2013-02-22 16:43:00,
2013-02-22 11:49:00,38.2,26.7,30.34,ESE,121,0.0,4.0,63,0.00,,SKC,0.00,VWS V14.01,2013-02-22 16:49:00,
2013-02-22 11:50:00,38.2,26.7,30.34,ESE,121,0.0,4.0,63,0.00,,SKC,0.00,VWS V14.01,2013-02-22 16:50:00,
2013-02-22 11:54:00,38.0,26.9,30.34,ESE,121,0.0,0.0,64,0.00,,SKC,0.00,VWS V14.01,2013-02-22 16:54:00,
2013-02-22 11:59:00,38.0,26.9,30.34,SE,127,0.0,4.0,64,0.00,,SKC,0.00,VWS V14.01,2013-02-22 16:59:00,
2013-02-22 12:00:00,37.9,26.8,30.34,SE,127,1.0,4.0,64,0.00,,SKC,0.00,VWS V14.01,2013-02-22 17:00:00,
2013-02-22 12:04:00,37.8,27.1,30.34,SE,127,0.0,1.0,65,0.00,,SKC,0.00,VWS V14.01,2013-02-22 17:04:00,
2013-02-22 12:09:00,37.8,27.5,30.33,ESE,117,0.0,2.0,66,0.00,,SKC,0.00,VWS V14.01,2013-02-22 17:09:00,
2013-02-22 12:10:00,37.8,27.5,30.34,ESE,117,0.0,2.0,66,0.00,,SKC,0.00,VWS V14.01,2013-02-22 17:10:00,
2013-02-22 12:14:00,37.9,27.6,30.33,SE,130,0.0,7.0,66,0.00,,SKC,0.00,VWS V14.01,2013-02-22 17:14:00,
2013-02-22 12:19:00,37.6,27.6,30.33,SE,129,0.0,7.0,67,0.00,,SKC,0.00,VWS V14.01,2013-02-22 17:19:00,
2013-02-22 12:20:00,37.6,27.6,30.34,SE,129,0.0,7.0,67,0.00,,SKC,0.00,VWS V14.01,2013-02-22 17:20:00,
2013-02-22 12:24:00,37.3,27.4,30.33,SE,128,1.0,5.0,67,0.00,,SKC,0.00,VWS V14.01,2013-02-22 17:24:00,
2013-02-22 12:30:00,37.5,27.9,30.34,SE,139,0.0,5.0,68,0.00,,SKC,0.00,VWS V14.01,2013-02-22 17:30:00,
2013-02-22 12:35:00,37.5,27.9,30.33,SE,136,0.0,2.0,68,0.00,,SKC,0.00,VWS V14.01,2013-02-22 17:35:00,
2013-02-22 12:40:00,37.8,28.2,30.34,SE,136,0.0,2.0,68,0.00,,SKC,0.00,VWS V14.01,2013-02-22 17:40:00,
2013-02-22 12:45:00,37.8,28.2,30.34,SE,129,0.0,4.0,68,0.00,,SKC,0.00,VWS V14.01,2013-02-22 17:45:00,
2013-02-22 12:50:00,37.8,28.2,30.34,SE,127,0.0,4.0,68,0.00,,SKC,0.00,VWS V14.01,2013-02-22 17:50:00,
2013-02-22 12:55:00,37.8,27.8,30.34,SE,126,0.0,2.0,67,0.00,,SKC,0.00,VWS V14.01,2013-02-22 17:55:00,
2013-02-22 13:00:00,38.0,28.0,30.33,SE,133,0.0,5.0,67,0.00,,SKC,0.00,VWS V14.01,2013-02-22 18:00:00,
2013-02-22 13:05:00,38.0,28.0,30.33,SE,130,1.0,2.0,67,0.00,,SKC,0.00,VWS V14.01,2013-02-22 18:05:00,
2013-02-22 13:10:00,38.3,28.0,30.32,SE,129,0.0,2.0,66,0.00,,SKC,0.00,VWS V14.01,2013-02-22 18:10:00,
2013-02-22 13:15:00,38.2,27.9,30.33,SE,130,0.0,2.0,66,0.00,,SKC,0.00,VWS V14.01,2013-02-22 18:15:00,
2013-02-22 13:20:00,37.9,27.6,30.33,ESE,107,0.0,4.0,66,0.00,,SKC,0.00,VWS V14.01,2013-02-22 18:20:00,
2013-02-22 13:25:00,37.9,27.6,30.33,ESE,107,0.0,4.0,66,0.00,,SKC,0.00,VWS V14.01,2013-02-22 18:25:00,
2013-02-22 13:30:00,38.0,28.0,30.33,ESE,107,2.0,4.0,67,0.00,,SKC,0.00,VWS V14.01,2013-02-22 18:30:00,
2013-02-22 13:35:00,38.3,28.0,30.34,ESE,107,0.0,1.0,66,0.00,,SKC,0.00,VWS V14.01,2013-02-22 18:35:00,
2013-02-22 13:40:00,38.3,27.6,30.33,ESE,107,0.0,1.0,65,0.00,,SKC,0.00,VWS V14.01,2013-02-22 18:40:00,
2013-02-22 13:41:00,38.3,27.6,30.33,ESE,107,0.0,1.0,65,0.00,,SKC,0.00,VWS V14.01,2013-02-22 18:41:00,
2013-02-22 13:46:00,38.2,28.2,30.33,ESE,114,0.0,2.0,67,0.00,,SKC,0.00,VWS V14.01,2013-02-22 18:46:00,
2013-02-22 13:50:00,38.0,27.7,30.33,ESE,114,0.0,2.0,66,0.00,,SKC,0.00,VWS V14.01,2013-02-22 18:50:00,
2013-02-22 13:51:00,38.0,27.7,30.33,ESE,114,0.0,2.0,66,0.00,,SKC,0.00,VWS V14.01,2013-02-22 18:51:00,
2013-02-22 13:56:00,38.0,27.7,30.32,ESE,114,0.0,2.0,66,0.00,,SKC,0.00,VWS V14.01,2013-02-22 18:56:00,
2013-02-22 14:00:00,38.3,28.0,30.32,ESE,114,0.0,2.0,66,0.00,,SKC,0.00,VWS V14.01,2013-02-22 19:00:00,
2013-02-22 14:01:00,38.3,28.0,30.32,ESE,114,0.0,2.0,66,0.00,,SKC,0.00,VWS V14.01,2013-02-22 19:01:00,
2013-02-22 14:06:00,38.5,28.5,30.32,ESE,114,0.0,0.0,67,0.00,,SKC,0.00,VWS V14.01,2013-02-22 19:06:00,
2013-02-22 14:10:00,38.2,28.2,30.31,ESE,113,0.0,1.0,67,0.00,,SKC,0.00,VWS V14.01,2013-02-22 19:10:00,
2013-02-22 14:11:00,38.2,28.2,30.31,ESE,113,0.0,1.0,67,0.00,,SKC,0.00,VWS V14.01,2013-02-22 19:11:00,
2013-02-22 14:16:00,37.9,28.3,30.31,ESE,113,0.0,0.0,68,0.00,,SKC,0.00,VWS V14.01,2013-02-22 19:16:00,
2013-02-22 14:20:00,37.9,28.6,30.31,ESE,113,0.0,1.0,69,0.00,,SKC,0.00,VWS V14.01,2013-02-22 19:20:00,
2013-02-22 14:22:00,37.9,28.6,30.31,ESE,113,0.0,0.0,69,0.00,,SKC,0.00,VWS V14.01,2013-02-22 19:22:00,
2013-02-22 14:27:00,37.6,28.0,30.32,ESE,113,0.0,1.0,68,0.00,,SKC,0.00,VWS V14.01,2013-02-22 19:27:00,
2013-02-22 14:35:00,37.6,28.4,30.31,ESE,113,0.0,0.0,69,0.00,,SKC,0.00,VWS V14.01,2013-02-22 19:35:00,
2013-02-22 14:40:00,37.8,27.8,30.31,ESE,113,0.0,0.0,67,0.00,,SKC,0.00,VWS V14.01,2013-02-22 19:40:00,
2013-02-22 14:45:00,37.8,27.8,30.31,ESE,113,0.0,2.0,67,0.00,,SKC,0.00,VWS V14.01,2013-02-22 19:45:00,
2013-02-22 14:51:00,37.8,28.2,30.30,ESE,113,0.0,2.0,68,0.00,,SKC,0.00,VWS V14.01,2013-02-22 19:51:00,
2013-02-22 14:56:00,37.6,28.0,30.31,ESE,113,0.0,1.0,68,0.00,,SKC,0.00,VWS V14.01,2013-02-22 19:56:00,
2013-02-22 15:01:00,37.5,28.3,30.31,ESE,113,0.0,1.0,69,0.00,,SKC,0.00,VWS V14.01,2013-02-22 20:01:00,
2013-02-22 15:06:00,37.3,28.4,30.31,ESE,113,0.0,0.0,70,0.00,,SKC,0.00,VWS V14.01,2013-02-22 20:06:00,
2013-02-22 15:11:00,37.3,28.4,30.31,ESE,113,0.0,0.0,70,0.00,,SKC,0.00,VWS V14.01,2013-02-22 20:11:00,
2013-02-22 15:16:00,37.2,28.3,30.32,ESE,113,0.0,1.0,70,0.00,,SKC,0.00,VWS V14.01,2013-02-22 20:16:00,
2013-02-22 15:21:00,37.3,28.8,30.31,ESE,113,0.0,1.0,71,0.00,,SKC,0.00,VWS V14.01,2013-02-22 20:21:00,
2013-02-22 15:26:00,37.3,28.4,30.31,ESE,113,0.0,0.0,70,0.00,,SKC,0.00,VWS V14.01,2013-02-22 20:26:00,
2013-02-22 15:31:00,37.2,28.7,30.31,ESE,113,0.0,0.0,71,0.00,,SKC,0.00,VWS V14.01,2013-02-22 20:31:00,
2013-02-22 15:36:00,37.0,28.5,30.32,ESE,113,0.0,0.0,71,0.00,,SKC,0.00,VWS V14.01,2013-02-22 20:36:00,
2013-02-22 15:41:00,37.0,28.8,30.31,ESE,113,0.0,0.0,72,0.00,,SKC,0.00,VWS V14.01,2013-02-22 20:41:00,
2013-02-22 15:46:00,37.0,28.8,30.31,ESE,113,0.0,0.0,72,0.00,,SKC,0.00,VWS V14.01,2013-02-22 20:46:00,
2013-02-22 15:51:00,36.9,28.7,30.31,ESE,113,0.0,2.0,72,0.00,,SKC,0.00,VWS V14.01,2013-02-22 20:51:00,
2013-02-22 15:56:00,36.8,29.0,30.31,ESE,113,0.0,1.0,73,0.00,,SKC,0.00,VWS V14.01,2013-02-22 20:56:00,
2013-02-22 16:01:00,36.6,28.8,30.30,ESE,113,0.0,1.0,73,0.00,,SKC,0.00,VWS V14.01,2013-02-22 21:01:00,
2013-02-22 16:06:00,36.6,29.1,30.31,ESE,113,0.0,1.0,74,0.00,,SKC,0.00,VWS V14.01,2013-02-22 21:06:00,
2013-02-22 16:11:00,36.5,28.7,30.31,ESE,113,0.0,0.0,73,0.00,,SKC,0.00,VWS V14.01,2013-02-22 21:11:00,
2013-02-22 16:16:00,36.5,29.0,30.30,ESE,113,0.0,0.0,74,0.00,,SKC,0.00,VWS V14.01,2013-02-22 21:16:00,
2013-02-22 16:22:00,36.5,29.0,30.31,ESE,113,0.0,0.0,74,0.00,,SKC,0.00,VWS V14.01,2013-02-22 21:22:00,
2013-02-22 16:27:00,36.5,29.0,30.31,ESE,113,0.0,0.0,74,0.00,,SKC,0.00,VWS V14.01,2013-02-22 21:27:00,
2013-02-22 16:32:00,36.5,29.0,30.32,ESE,113,0.0,0.0,74,0.00,,SKC,0.00,VWS V14.01,2013-02-22 21:32:00,
2013-02-22 16:37:00,36.5,28.7,30.32,ESE,113,0.0,0.0,73,0.00,,SKC,0.00,VWS V14.01,2013-02-22 21:37:00,
2013-02-22 16:42:00,36.3,28.5,30.31,ESE,113,0.0,0.0,73,0.00,,SKC,0.00,VWS V14.01,2013-02-22 21:42:00,
2013-02-22 16:47:00,36.3,28.5,30.31,ESE,113,0.0,0.0,73,0.00,,SKC,0.00,VWS V14.01,2013-02-22 21:47:00,
2013-02-22 16:52:00,36.3,28.5,30.31,ESE,113,0.0,0.0,73,0.00,,SKC,0.00,VWS V14.01,2013-02-22 21:52:00,
2013-02-22 16:57:00,36.2,28.4,30.31,ESE,113,0.0,0.0,73,0.00,,SKC,0.00,VWS V14.01,2013-02-22 21:57:00,
2013-02-22 17:02:00,36.0,28.2,30.31,ESE,113,0.0,0.0,73,0.00,,SKC,0.00,VWS V14.01,2013-02-22 22:02:00,
2013-02-22 17:07:00,36.0,28.2,30.31,ESE,113,0.0,0.0,73,0.00,,SKC,0.00,VWS V14.01,2013-02-22 22:07:00,
2013-02-22 17:12:00,35.9,28.1,30.31,ESE,113,0.0,0.0,73,0.00,,SKC,0.00,VWS V14.01,2013-02-22 22:12:00,
2013-02-22 17:17:00,35.9,28.4,30.31,ESE,113,0.0,0.0,74,0.00,,SKC,0.00,VWS V14.01,2013-02-22 22:17:00,
2013-02-22 17:22:00,35.8,28.3,30.31,ESE,113,0.0,0.0,74,0.00,,SKC,0.00,VWS V14.01,2013-02-22 22:22:00,
2013-02-22 17:27:00,35.6,28.1,30.32,ESE,113,0.0,0.0,74,0.00,,SKC,0.00,VWS V14.01,2013-02-22 22:27:00,
2013-02-22 17:32:00,35.6,28.1,30.32,ESE,113,0.0,0.0,74,0.00,,SKC,0.00,VWS V14.01,2013-02-22 22:32:00,
2013-02-22 17:37:00,35.5,28.0,30.32,ESE,113,0.0,0.0,74,0.00,,SKC,0.00,VWS V14.01,2013-02-22 22:37:00,
2013-02-22 17:42:00,35.5,28.4,30.32,ESE,113,0.0,0.0,75,0.00,,SKC,0.00,VWS V14.01,2013-02-22 22:42:00,
2013-02-22 17:48:00,35.3,28.2,30.32,ESE,113,0.0,0.0,75,0.00,,SKC,0.00,VWS V14.01,2013-02-22 22:48:00,
2013-02-22 17:53:00,35.3,28.2,30.32,ESE,113,0.0,0.0,75,0.00,,SKC,0.00,VWS V14.01,2013-02-22 22:53:00,
2013-02-22 17:58:00,35.2,28.1,30.32,ESE,113,0.0,0.0,75,0.00,,SKC,0.00,VWS V14.01,2013-02-22 22:58:00,
2013-02-22 18:03:00,35.2,28.1,30.32,ESE,113,0.0,0.0,75,0.00,,SKC,0.00,VWS V14.01,2013-02-22 23:03:00,
2013-02-22 18:08:00,35.2,28.1,30.32,ESE,113,0.0,0.0,75,0.00,,SKC,0.00,VWS V14.01,2013-02-22 23:08:00,
2013-02-22 18:13:00,35.2,28.1,30.33,ESE,113,0.0,0.0,75,0.00,,SKC,0.00,VWS V14.01,2013-02-22 23:13:00,
2013-02-22 18:18:00,35.2,28.4,30.32,ESE,113,0.0,0.0,76,0.00,,SKC,0.00,VWS V14.01,2013-02-22 23:18:00,
2013-02-22 18:23:00,35.2,28.4,30.32,ESE,113,0.0,0.0,76,0.00,,SKC,0.00,VWS V14.01,2013-02-22 23:23:00,
2013-02-22 18:28:00,35.2,28.4,30.32,ESE,113,0.0,0.0,76,0.00,,SKC,0.00,VWS V14.01,2013-02-22 23:28:00,
2013-02-22 18:33:00,35.2,28.4,30.33,ESE,113,0.0,0.0,76,0.00,,SKC,0.00,VWS V14.01,2013-02-22 23:33:00,
2013-02-22 18:38:00,35.2,28.4,30.33,ESE,113,0.0,0.0,76,0.00,,SKC,0.00,VWS V14.01,2013-02-22 23:38:00,
2013-02-22 18:43:00,35.2,28.7,30.33,ESE,113,0.0,0.0,77,0.00,,SKC,0.00,VWS V14.01,2013-02-22 23:43:00,
2013-02-22 18:48:00,35.2,28.7,30.33,ESE,113,0.0,0.0,77,0.00,,SKC,0.00,VWS V14.01,2013-02-22 23:48:00,
2013-02-22 18:53:00,35.2,28.7,30.33,ESE,113,0.0,0.0,77,0.00,,SKC,0.00,VWS V14.01,2013-02-22 23:53:00,
2013-02-22 18:58:00,35.2,28.7,30.33,ESE,113,0.0,0.0,77,0.00,,SKC,0.00,VWS V14.01,2013-02-22 23:58:00,
2013-02-22 19:03:00,35.2,28.7,30.33,ESE,113,0.0,0.0,77,0.00,,SKC,0.00,VWS V14.01,2013-02-23 00:03:00,
2013-02-22 19:08:00,35.2,28.7,30.33,ESE,113,0.0,0.0,77,0.00,,SKC,0.00,VWS V14.01,2013-02-23 00:08:00,
2013-02-22 19:14:00,35.3,28.8,30.33,ESE,113,0.0,0.0,77,0.00,,SKC,0.00,VWS V14.01,2013-02-23 00:14:00,
2013-02-22 19:19:00,35.3,28.8,30.33,ESE,113,0.0,0.0,77,0.00,,SKC,0.00,VWS V14.01,2013-02-23 00:19:00,
2013-02-22 19:24:00,35.3,28.8,30.33,ESE,113,0.0,0.0,77,0.00,,SKC,0.00,VWS V14.01,2013-02-23 00:24:00,
2013-02-22 19:29:00,35.3,28.8,30.33,ESE,113,0.0,0.0,77,0.00,,SKC,0.00,VWS V14.01,2013-02-23 00:29:00,
2013-02-22 19:34:00,35.5,29.3,30.33,ESE,113,0.0,0.0,78,0.00,,SKC,0.00,VWS V14.01,2013-02-23 00:34:00,
2013-02-22 19:39:00,35.5,29.3,30.32,ESE,113,0.0,0.0,78,0.00,,SKC,0.00,VWS V14.01,2013-02-23 00:39:00,
2013-02-22 19:44:00,35.5,29.3,30.32,ESE,113,0.0,0.0,78,0.00,,SKC,0.00,VWS V14.01,2013-02-23 00:44:00,
2013-02-22 19:49:00,35.5,29.3,30.32,ESE,113,0.0,0.0,78,0.00,,SKC,0.00,VWS V14.01,2013-02-23 00:49:00,
2013-02-22 19:54:00,35.5,29.3,30.31,ESE,113,0.0,1.0,78,0.00,,SKC,0.00,VWS V14.01,2013-02-23 00:54:00,
2013-02-22 19:59:00,35.6,29.1,30.31,ESE,113,0.0,1.0,77,0.00,,SKC,0.00,VWS V14.01,2013-02-23 00:59:00,
2013-02-22 20:04:00,35.6,29.1,30.31,ESE,113,0.0,0.0,77,0.00,,SKC,0.00,VWS V14.01,2013-02-23 01:04:00,
2013-02-22 20:09:00,35.6,29.1,30.32,ESE,113,0.0,0.0,77,0.00,,SKC,0.00,VWS V14.01,2013-02-23 01:09:00,
2013-02-22 20:15:00,35.6,29.1,30.32,ESE,113,0.0,0.0,77,0.00,,SKC,0.00,VWS V14.01,2013-02-23 01:15:00,
2013-02-22 20:20:00,35.6,29.1,30.32,ESE,113,0.0,0.0,77,0.00,,SKC,0.00,VWS V14.01,2013-02-23 01:20:00,
2013-02-22 20:25:00,35.6,29.1,30.32,ESE,113,0.0,1.0,77,0.00,,SKC,0.00,VWS V14.01,2013-02-23 01:25:00,
2013-02-22 20:30:00,35.6,29.1,30.32,ESE,113,0.0,1.0,77,0.00,,SKC,0.00,VWS V14.01,2013-02-23 01:30:00,
2013-02-22 20:35:00,35.6,29.1,30.32,ESE,113,0.0,0.0,77,0.00,,SKC,0.00,VWS V14.01,2013-02-23 01:35:00,
2013-02-22 20:40:00,35.6,29.1,30.33,ESE,113,0.0,0.0,77,0.00,,SKC,0.00,VWS V14.01,2013-02-23 01:40:00,
2013-02-22 20:45:00,35.6,29.1,30.32,ESE,113,0.0,0.0,77,0.00,,SKC,0.00,VWS V14.01,2013-02-23 01:45:00,
2013-02-22 20:50:00,35.6,29.1,30.32,ESE,113,0.0,0.0,77,0.00,,SKC,0.00,VWS V14.01,2013-02-23 01:50:00,
2013-02-22 20:55:00,35.6,29.1,30.32,ESE,113,0.0,0.0,77,0.00,,SKC,0.00,VWS V14.01,2013-02-23 01:55:00,
2013-02-22 21:00:00,35.6,29.1,30.32,ESE,113,0.0,1.0,77,0.00,,SKC,0.00,VWS V14.01,2013-02-23 02:00:00,
2013-02-22 21:05:00,35.6,29.1,30.32,ESE,113,0.0,1.0,77,0.00,,SKC,0.00,VWS V14.01,2013-02-23 02:05:00,
2013-02-22 21:10:00,35.6,29.1,30.31,ESE,113,0.0,1.0,77,0.00,,SKC,0.00,VWS V14.01,2013-02-23 02:10:00,
2013-02-22 21:15:00,35.6,29.1,30.31,ESE,113,0.0,0.0,77,0.00,,SKC,0.00,VWS V14.01,2013-02-23 02:15:00,
2013-02-22 21:20:00,35.6,29.1,30.32,ESE,113,0.0,0.0,77,0.00,,SKC,0.00,VWS V14.01,2013-02-23 02:20:00,
2013-02-22 21:25:00,35.8,29.3,30.32,ESE,113,0.0,0.0,77,0.00,,SKC,0.00,VWS V14.01,2013-02-23 02:25:00,
2013-02-22 21:30:00,35.8,29.3,30.32,ESE,113,0.0,1.0,77,0.00,,SKC,0.00,VWS V14.01,2013-02-23 02:30:00,
2013-02-22 21:36:00,35.8,29.3,30.32,ESE,113,0.0,0.0,77,0.00,,SKC,0.00,VWS V14.01,2013-02-23 02:36:00,
2013-02-22 21:45:00,35.8,29.3,30.32,ESE,113,0.0,0.0,77,0.00,,SKC,0.00,VWS V14.01,2013-02-23 02:45:00,
2013-02-22 21:50:00,35.8,29.3,30.32,ESE,113,0.0,0.0,77,0.00,,SKC,0.00,VWS V14.01,2013-02-23 02:50:00,
2013-02-22 21:55:00,35.6,29.1,30.32,ESE,113,0.0,0.0,77,0.00,,SKC,0.00,VWS V14.01,2013-02-23 02:55:00,
2013-02-22 22:00:00,35.6,29.1,30.31,ESE,113,0.0,0.0,77,0.00,,SKC,0.00,VWS V14.01,2013-02-23 03:00:00,
2013-02-22 22:05:00,35.6,29.4,30.31,ESE,113,0.0,0.0,78,0.00,,SKC,0.00,VWS V14.01,2013-02-23 03:05:00,
2013-02-22 22:10:00,35.6,29.4,30.32,ESE,113,0.0,0.0,78,0.00,,SKC,0.00,VWS V14.01,2013-02-23 03:10:00,
2013-02-22 22:15:00,35.6,29.4,30.32,ESE,113,0.0,0.0,78,0.00,,SKC,0.00,VWS V14.01,2013-02-23 03:15:00,
2013-02-22 22:21:00,35.5,29.3,30.32,ESE,113,0.0,0.0,78,0.00,,SKC,0.00,VWS V14.01,2013-02-23 03:21:00,
2013-02-22 22:26:00,35.5,29.3,30.32,ESE,113,0.0,0.0,78,0.00,,SKC,0.00,VWS V14.01,2013-02-23 03:26:00,
2013-02-22 22:31:00,35.5,29.3,30.31,ESE,113,0.0,0.0,78,0.00,,SKC,0.00,VWS V14.01,2013-02-23 03:31:00,
2013-02-22 22:36:00,35.5,29.3,30.31,ESE,113,0.0,0.0,78,0.00,,SKC,0.00,VWS V14.01,2013-02-23 03:36:00,
2013-02-22 22:41:00,35.5,29.3,30.31,ESE,113,0.0,0.0,78,0.00,,SKC,0.00,VWS V14.01,2013-02-23 03:41:00,
2013-02-22 22:46:00,35.6,29.4,30.31,ESE,113,0.0,0.0,78,0.00,,SKC,0.00,VWS V14.01,2013-02-23 03:46:00,
2013-02-22 22:51:00,35.6,29.7,30.30,ESE,113,0.0,0.0,79,0.00,,SKC,0.00,VWS V14.01,2013-02-23 03:51:00,
2013-02-22 22:56:00,35.6,29.7,30.29,ESE,113,0.0,0.0,79,0.00,,SKC,0.00,VWS V14.01,2013-02-23 03:56:00,
2013-02-22 23:01:00,35.8,29.9,30.30,ESE,113,0.0,0.0,79,0.00,,SKC,0.00,VWS V14.01,2013-02-23 04:01:00,
2013-02-22 23:07:00,35.8,29.9,30.29,ESE,113,0.0,0.0,79,0.00,,SKC,0.00,VWS V14.01,2013-02-23 04:07:00,
2013-02-22 23:12:00,35.8,29.9,30.29,ESE,113,0.0,0.0,79,0.00,,SKC,0.00,VWS V14.01,2013-02-23 04:12:00,
2013-02-22 23:17:00,35.8,29.9,30.30,ESE,113,0.0,0.0,79,0.00,,SKC,0.00,VWS V14.01,2013-02-23 04:17:00,
2013-02-22 23:22:00,35.8,29.9,30.29,ESE,113,0.0,0.0,79,0.00,,SKC,0.00,VWS V14.01,2013-02-23 04:22:00,
2013-02-22 23:27:00,35.6,29.7,30.29,ESE,113,0.0,0.0,79,0.00,,SKC,0.00,VWS V14.01,2013-02-23 04:27:00,
2013-02-22 23:32:00,35.5,29.6,30.29,ESE,113,0.0,0.0,79,0.00,,SKC,0.00,VWS V14.01,2013-02-23 04:32:00,
2013-02-22 23:37:00,35.5,29.6,30.29,ESE,113,0.0,0.0,79,0.00,,SKC,0.00,VWS V14.01,2013-02-23 04:37:00,
2013-02-22 23:42:00,35.3,29.5,30.29,ESE,113,0.0,0.0,79,0.00,,SKC,0.00,VWS V14.01,2013-02-23 04:42:00,
2013-02-22 23:47:00,35.2,29.4,30.29,ESE,113,0.0,0.0,79,0.00,,SKC,0.00,VWS V14.01,2013-02-23 04:47:00,
2013-02-22 23:52:00,35.0,29.2,30.29,ESE,113,0.0,0.0,79,0.00,,SKC,0.00,VWS V14.01,2013-02-23 04:52:00,
2013-02-22 23:57:00,35.0,29.2,30.28,ESE,113,0.0,0.0,79,0.00,,SKC,0.00,VWS V14.01,2013-02-23 04:57:00,